Wind_Speed
5 5 5 5 5 5 5 5 3 4 4 3 3 3 3 2 2 2 2 3 3 3 3 4 3 4 5 6 6 6 6 7 8 9 9 9 9 10 11 11 11 11 11
3 4 4 4 5 5 4 4 3 3 3 3 3 3 3 2 2 2 2 3 3 3 4 4 4 5 5 6 7 7 7 8 9 9 9 10 10 11 11 11 11 12 12
3 3 3 4 4 4 4 4 3 4 3 3 3 4 4 3 3 3 3 4 4 4 4 5 5 6 6 7 7 7 8 8 9 9 10 10 10 11 11 11 11 11 12
4 4 4 4 4 4 4 4 4 4 4 4 4 4 5 5 5 5 5 4 5 5 5 5 5 6 7 7 8 9 9 9 9 10 11 11 11 11 11 11 11 11 11
5 5 5 5 4 4 4 4 4 5 5 5 5 6 6 6 6 6 6 6 6 6 7 7 7 7 8 8 9 10 10 10 10 10 11 11 11 11 11 11 11 11 11
6 6 6 5 5 5 5 5 5 5 6 6 7 7 8 8 8 7 8 8 8 8 8 9 9 9 9 9 10 10 11 10 10 10 11 11 11 10 11 11 11 11 10
7 7 7 7 7 7 7 7 7 7 7 8 9 9 10 10 10 10 10 10 9 10 10 10 10 9 10 10 10 11 11 11 11 12 12 12 12 11 11 12 12 11 11
8 8 8 8 7 7 8 8 8 8 8 9 10 11 12 12 12 11 11 11 11 11 12 12 11 11 12 12 11 11 11 12 12 12 12 12 12 12 12 12 12 11 11
10 10 10 10 9 9 9 9 10 10 10 11 12 13 13 13 13 12 12 12 12 13 13 14 13 13 13 13 13 13 12 12 13 12 12 12 13 13 13 13 13 13 12
13 12 12 12 11 11 10 11 12 12 13 13 14 14 15 15 14 14 14 14 14 14 15 15 15 15 15 14 14 14 14 14 13 13 13 14 15 14 14 14 14 14 14
13 12 12 13 13 13 13 14 14 14 15 16 16 17 17 16 16 16 16 16 16 16 16 16 16 17 16 16 15 15 15 15 15 15 15 16 16 16 16 16 16 16 16
14 14 14 15 15 16 16 16 17 17 18 19 19 19 18 17 17 18 18 18 18 18 18 17 18 17 17 16 16 16 16 17 16 16 16 17 17 17 17 17 17 17 18
16 16 17 17 17 17 18 18 18 19 19 20 21 20 20 19 18 18 18 18 19 19 18 19 19 18 17 16 16 17 17 17 17 18 18 18 18 19 19 19 19 20 20
18 18 19 19 19 19 19 19 20 21 21 21 21 20 19 19 19 20 20 19 19 19 19 19 19 19 18 17 17 18 18 18 18 19 19 20 20 20 21 21 21 21 21
19 20 19 20 20 21 20 20 21 21 21 21 21 21 21 21 21 21 21 21 20 20 20 20 20 20 19 19 19 20 19 20 20 20 21 21 21 22 22 22 22 22 22
20 20 20 20 20 20 20 21 21 21 21 22 22 22 22 22 22 22 22 21 21 21 22 21 21 21 21 21 22 22 22 21 21 21 22 22 22 22 23 23 24 23 23
22 21 22 22 22 21 21 21 21 22 22 23 24 24 24 23 23 23 23 22 23 23 23 23 23 22 22 23 23 22 22 22 22 22 23 23 23 23 23 24 24 24 24
23 23 24 24 24 24 24 23 24 24 24 25 25 25 25 25 24 24 24 24 24 24 24 24 24 24 24 23 24 24 24 23 23 24 24 24 24 24 25 25 25 25 26
26 25 26 26 26 26 26 26 27 26 27 27 26 26 26 26 26 25 25 25 25 25 25 25 24 24 23 24 24 25 25 25 25 25 26 26 26 26 26 26 25 26 27
27 27 28 28 28 28 29 28 28 27 28 28 28 28 28 28 27 26 26 25 25 25 25 25 25 24 24 24 25 25 25 25 26 27 28 28 27 27 27 27 27 27 28
27 28 28 29 29 29 30 30 29 29 29 29 29 29 30 29 28 27 27 26 26 26 26 26 26 25 25 26 26 26 26 26 27 27 27 27 28 28 28 28 28 29 29
28 28 29 29 30 30 31 31 31 31 31 31 31 31 30 30 29 28 28 28 27 27 27 27 27 27 27 27 27 28 28 28 28 28 28 28 29 29 29 29 30 30 30
29 29 30 30 30 30 31 30 30 31 32 32 32 32 32 31 30 29 29 29 29 28 28 28 28 28 28 28 28 29 29 29 29 29 29 29 30 29 30 30 30 31 31
29 29 30 31 31 31 31 31 31 32 32 32 32 33 33 32 31 30 30 30 31 30 30 30 29 29 29 29 30 30 30 30 30 30 30 30 30 30 30 31 30 30 31
29 30 30 31 32 32 32 32 31 31 31 33 33 33 33 32 32 32 32 31 31 32 32 31 31 30 30 30 31 31 31 31 31 31 31 31 31 31 31 31 31 31 32
29 29 30 31 31 31 32 32 32 32 32 33 33 33 32 32 32 33 33 32 32 33 33 33 32 31 31 31 31 31 31 32 32 32 31 32 32 32 32 32 32 33 33
Wind_Direction
33 32 33 32 33 34 40 52 60 57 51 51 56 52 46 32 35 24 355 352 350 343 336 336 319 298 293 285 281 280 280 279 283 286 286 281 279 283 286 291 293 292 292
14 19 22 23 25 22 21 32 47 38 29 31 31 17 4 357 355 353 347 342 340 340 331 330 327 314 301 287 286 282 281 283 285 288 289 290 285 286 290 292 291 290 290
322 336 352 358 0 3 3 6 13 11 13 11 5 349 340 335 330 328 323 321 317 318 328 322 316 314 307 299 292 287 290 289 288 287 290 289 292 294 296 296 294 293 294
304 301 314 324 335 341 343 342 344 343 339 341 340 336 331 322 316 313 312 311 310 310 316 319 313 312 307 298 290 289 290 289 288 289 290 290 291 292 292 296 299 297 294
296 290 294 303 311 316 320 321 324 323 320 319 319 322 323 318 313 309 304 299 303 309 310 312 315 312 306 297 290 289 289 286 283 285 288 289 290 291 294 301 305 302 299
293 282 290 290 296 297 297 296 300 307 309 308 308 309 309 308 307 305 304 300 299 302 306 308 309 309 308 304 296 288 285 284 283 283 288 290 293 293 296 301 303 302 302
293 283 288 285 285 285 286 288 287 292 296 296 297 300 300 299 298 298 299 300 300 299 300 302 306 307 308 306 302 294 287 285 287 287 286 287 291 294 296 301 301 301 299
289 289 286 281 276 285 281 282 285 286 288 290 292 294 295 293 293 290 291 293 297 297 295 296 296 296 301 303 301 297 293 290 289 289 288 288 291 294 294 299 299 298 294
284 287 284 280 278 281 282 283 286 289 289 288 289 292 293 293 291 287 285 286 291 294 293 292 295 296 297 297 295 299 296 294 290 287 289 289 290 293 293 295 295 297 297
287 286 283 280 277 278 282 281 284 289 292 293 290 290 291 290 289 286 284 287 289 290 291 293 290 292 292 291 292 294 294 294 292 291 290 290 289 289 290 292 294 295 296
287 285 284 282 283 281 281 279 282 285 288 288 289 289 290 285 286 285 284 285 287 288 288 289 289 289 288 288 290 290 290 289 287 287 287 287 288 289 290 291 292 293 293
276 276 279 281 286 285 283 280 282 285 287 288 288 289 288 284 286 284 283 284 285 286 287 289 289 290 286 287 289 289 287 285 284 285 285 286 287 288 290 290 290 291 291
276 276 277 279 283 285 285 279 280 283 285 288 291 288 287 286 284 282 284 285 284 285 285 289 288 290 288 287 288 288 287 285 284 283 283 285 285 287 288 288 288 289 289
275 276 275 277 279 282 283 280 282 283 284 287 289 290 291 290 288 284 283 282 283 284 283 285 286 286 285 285 288 288 285 283 282 282 282 283 283 284 285 287 287 288 288
276 276 273 274 278 281 279 280 283 284 284 285 286 288 287 286 286 286 284 282 282 283 284 284 283 283 282 283 285 285 284 282 281 281 281 283 282 283 284 286 287 288 289
279 280 279 277 280 282 281 280 281 283 283 283 283 285 286 285 285 285 286 284 283 284 283 283 282 282 282 283 282 284 283 282 281 280 280 281 282 282 283 284 285 287 289
275 276 280 281 280 281 280 280 280 281 281 281 282 284 284 284 285 286 287 288 287 287 287 284 283 284 284 283 283 284 284 281 279 280 281 281 282 282 283 286 286 286 287
274 275 277 279 280 279 278 277 279 281 280 280 281 283 283 283 284 285 286 287 287 285 286 287 285 284 284 284 285 283 284 282 279 279 280 281 282 282 285 287 287 286 286
271 273 276 278 279 279 278 277 278 279 279 280 280 280 283 285 284 283 284 284 284 284 284 284 286 285 284 284 283 283 282 282 280 280 280 281 281 283 285 286 286 287 287
274 274 275 276 276 278 278 278 279 278 279 280 280 280 283 285 285 282 282 282 283 284 283 284 284 283 283 284 283 283 283 283 281 281 280 280 279 281 282 284 285 285 286
275 274 273 273 273 276 277 277 278 278 278 278 278 278 280 281 282 281 279 280 280 282 282 282 283 282 281 282 281 281 280 280 280 280 280 279 279 280 281 282 284 286 286
275 276 276 275 274 274 275 277 277 277 276 276 276 276 278 280 279 279 278 278 280 281 280 281 281 281 280 280 280 281 280 279 279 280 280 279 280 280 281 282 283 286 287
274 276 277 277 277 277 277 277 276 276 276 275 276 276 277 278 279 278 278 277 277 278 279 280 279 279 278 277 278 280 281 280 280 283 283 282 283 283 283 284 285 287 288
276 277 276 276 277 278 279 279 276 276 276 275 276 276 276 277 277 277 276 276 275 276 277 278 277 276 277 278 278 279 281 282 282 283 285 285 285 285 285 285 285 286 287
278 277 278 279 278 278 279 278 277 277 277 276 276 276 277 278 277 277 277 277 275 277 277 278 279 277 276 277 278 279 280 280 280 281 282 283 284 284 285 285 284 284 285
278 280 279 279 278 278 278 277 277 277 277 279 277 277 278 279 279 280 280 279 278 277 278 278 279 279 279 278 279 280 281 282 281 281 281 282 283 284 284 284 285 285 285
Height
5894 5893 5892 5891 5890 5889 5888 5888 5887 5887 5886 5886 5885 5885 5884 5884 5883 5883 5882 5882 5881 5881 5880 5880 5879 5878 5878 5878 5877 5877 5877 5876 5876 5875 5874 5873 5872 5872 5871 5870 5869 5868 5867
5894 5893 5892 5891 5890 5889 5888 5888 5887 5887 5886 5886 5885 5885 5884 5884 5883 5883 5882 5882 5881 5880 5880 5879 5878 5877 5877 5876 5876 5875 5875 5874 5874 5873 5872 5871 5871 5869 5868 5868 5867 5865 5864
5893 5893 5892 5891 5890 5889 5889 5888 5887 5887 5886 5886 5885 5885 5884 5884 5883 5882 5882 5881 5880 5879 5878 5878 5877 5876 5876 5875 5874 5873 5873 5872 5871 5871 5870 5869 5868 5866 5866 5865 5864 5863 5861
5892 5892 5891 5891 5890 5889 5888 5888 5887 5886 5886 5885 5885 5884 5884 5883 5882 5881 5880 5880 5879 5878 5877 5876 5876 5875 5874 5873 5872 5871 5871 5870 5869 5868 5867 5866 5865 5864 5864 5863 5861 5860 5859
5891 5891 5890 5889 5889 5888 5888 5887 5886 5886 5885 5885 5884 5884 5883 5882 5881 5880 5879 5878 5877 5876 5875 5874 5874 5873 5871 5870 5870 5869 5868 5867 5867 5866 5865 5864 5863 5861 5861 5860 5859 5858 5856
5889 5889 5889 5888 5888 5887 5886 5886 5885 5885 5884 5883 5883 5882 5881 5880 5879 5878 5877 5876 5875 5874 5874 5872 5871 5870 5869 5868 5867 5866 5866 5865 5864 5863 5862 5861 5860 5859 5858 5857 5856 5855 5853
5888 5887 5887 5887 5886 5885 5885 5884 5883 5883 5882 5882 5881 5880 5879 5878 5877 5876 5875 5874 5873 5873 5871 5870 5869 5868 5867 5866 5864 5863 5863 5862 5861 5860 5859 5858 5857 5856 5856 5854 5853 5852 5851
5886 5885 5885 5885 5884 5883 5883 5882 5881 5881 5880 5879 5878 5878 5877 5876 5875 5874 5872 5871 5871 5870 5869 5867 5866 5865 5864 5863 5861 5860 5859 5859 5858 5857 5856 5855 5854 5853 5853 5851 5850 5849 5848
5884 5883 5883 5882 5881 5881 5880 5880 5879 5878 5878 5877 5876 5875 5874 5872 5871 5870 5869 5868 5867 5866 5865 5864 5863 5862 5861 5860 5858 5857 5856 5855 5854 5853 5853 5852 5851 5850 5849 5848 5847 5846 5845
5881 5881 5880 5879 5879 5878 5877 5877 5876 5875 5874 5873 5872 5871 5870 5869 5867 5866 5865 5864 5863 5862 5861 5860 5859 5858 5857 5856 5855 5853 5853 5852 5851 5850 5850 5849 5848 5847 5846 5845 5844 5842 5841
5878 5877 5877 5876 5875 5874 5874 5873 5872 5872 5871 5869 5868 5867 5866 5865 5864 5862 5861 5860 5859 5858 5857 5855 5854 5853 5852 5851 5850 5849 5849 5848 5847 5846 5846 5845 5844 5843 5842 5841 5840 5838 5837
5874 5874 5873 5872 5872 5871 5870 5869 5868 5867 5866 5865 5864 5862 5861 5860 5859 5858 5856 5855 5854 5853 5852 5851 5849 5848 5847 5846 5845 5845 5844 5843 5843 5842 5841 5840 5839 5839 5838 5836 5835 5834 5833
5870 5869 5869 5868 5867 5866 5865 5864 5863 5862 5861 5860 5859 5857 5856 5855 5854 5853 5851 5850 5849 5848 5846 5846 5844 5843 5842 5841 5841 5840 5839 5838 5837 5837 5836 5836 5835 5834 5832 5831 5830 5829 5827
5865 5864 5864 5863 5863 5861 5860 5859 5858 5857 5856 5855 5853 5852 5851 5850 5849 5847 5846 5845 5844 5843 5841 5840 5839 5838 5837 5836 5835 5835 5834 5833 5832 5831 5831 5830 5829 5828 5827 5825 5824 5823 5822
5860 5859 5858 5857 5857 5856 5855 5854 5853 5852 5850 5849 5848 5847 5846 5845 5843 5842 5840 5839 5838 5837 5836 5834 5833 5832 5831 5831 5830 5829 5828 5827 5826 5826 5825 5824 5823 5822 5821 5819 5818 5817 5816
5854 5853 5852 5851 5850 5850 5849 5848 5847 5846 5845 5844 5842 5841 5840 5838 5837 5836 5834 5833 5832 5831 5830 5829 5827 5826 5825 5825 5824 5823 5822 5821 5820 5820 5819 5818 5816 5815 5814 5813 5812 5811 5810
5848 5847 5846 5845 5844 5843 5842 5842 5841 5840 5839 5838 5836 5835 5834 5832 5831 5829 5828 5827 5826 5825 5823 5822 5821 5820 5819 5818 5817 5816 5815 5814 5814 5813 5812 5811 5810 5809 5807 5806 5805 5804 5802
5841 5840 5840 5839 5837 5837 5836 5835 5834 5833 5832 5831 5830 5829 5827 5826 5824 5823 5822 5821 5819 5818 5817 5815 5814 5813 5812 5811 5810 5809 5808 5808 5807 5806 5805 5804 5803 5802 5801 5799 5798 5797 5795
5833 5833 5832 5832 5831 5830 5828 5827 5826 5825 5824 5823 5822 5821 5820 5819 5817 5816 5815 5814 5813 5811 5810 5809 5807 5806 5805 5804 5803 5802 5802 5801 5800 5799 5798 5797 5796 5795 5793 5792 5791 5789 5788
5825 5825 5824 5823 5823 5822 5821 5819 5818 5817 5817 5816 5815 5813 5812 5811 5810 5808 5807 5806 5805 5803 5802 5801 5800 5799 5798 5797 5796 5795 5794 5793 5792 5791 5790 5789 5788 5787 5785 5784 5783 5782 5780
5817 5816 5815 5815 5814 5813 5812 5811 5810 5809 5808 5807 5806 5805 5804 5802 5801 5800 5799 5798 5797 5796 5795 5794 5793 5792 5791 5789 5788 5787 5786 5785 5784 5783 5782 5780 5779 5778 5777 5776 5775 5773 5772
5808 5807 5806 5806 5805 5804 5802 5801 5800 5800 5799 5798 5797 5796 5795 5793 5792 5792 5791 5790 5789 5788 5787 5786 5785 5784 5783 5782 5780 5779 5778 5777 5776 5774 5773 5772 5770 5769 5768 5767 5766 5765 5763
5799 5798 5797 5796 5795 5794 5793 5792 5791 5790 5789 5789 5788 5787 5786 5785 5784 5783 5782 5781 5781 5780 5779 5777 5776 5775 5774 5773 5772 5771 5770 5768 5767 5766 5764 5763 5762 5760 5759 5758 5757 5755 5754
5790 5789 5788 5787 5786 5785 5783 5782 5781 5780 5779 5779 5778 5777 5776 5775 5775 5774 5773 5772 5771 5771 5769 5768 5767 5767 5766 5764 5763 5762 5761 5759 5758 5757 5756 5754 5753 5752 5750 5749 5748 5746 5745
5781 5780 5779 5777 5776 5775 5774 5773 5772 5771 5769 5767 5767 5767 5766 5765 5765 5764 5764 5763 5762 5761 5760 5759 5758 5757 5756 5755 5754 5753 5752 5750 5749 5748 5747 5745 5744 5743 5741 5739 5738 5737 5735
5772 5771 5769 5768 5767 5766 5764 5763 5762 5761 5760 5759 5758 5757 5756 5756 5755 5754 5754 5753 5752 5751 5750 5749 5749 5747 5746 5745 5745 5744 5743 5741 5740 5739 5737 5736 5734 5733 5731 5730 5728 5727 5725